Regional Weather Roundup
Issued by NWS Newport/Morehead, NC

Current Version | Previous Version | Graphics & Text | Print | Product List | Glossary On
Versions: 1 2 3 4 5 6 7 8 9 10 11 12 13 14 15 16 17 18 19 20 21 22 23 24 25 26 27 28 29 30 31 32 33 34 35 36 37 38 39 40 41 42 43 44 45 46 47 48 49 50
000 ASUS42 KMHX 301525 RWRMHX WEATHER ROUNDUP FOR EASTERN NORTH CAROLINA NATIONAL WEATHER SERVICE NEWPORT/MOREHEAD CITY NC 1100 AM EDT TUE JUN 30 2015 NOTE: "FAIR" INDICATES FEW OR NO CLOUDS BELOW 12,000 FEET WITH NO SIGNIFICANT WEATHER AND/OR OBSTRUCTIONS TO VISIBILITY NCZ015>017-031-032-045>047-102-103-301600- NORTH COAST CITY SKY/WX TMP DP RH WIND PRES REMARKS EDENTON N/A 83 70 64 S8 29.97S ELIZABETH CITY MOSUNNY 84 71 65 S8 29.97S KITTY HAWK MOSUNNY 89 69 51 SW3 29.97F MANTEO MOSUNNY 84 70 61 S10 29.98F $$ NCZ045>047-081-094-103-104-301600- CENTRAL COAST CITY SKY/WX TMP DP RH WIND PRES REMARKS FRISCO SUNNY 83 74 74 SW8 30.01R SWANQUARTER N/A 86 N/A N/A SW6 29.94F $$ NCZ095-097-098-100-101-301600- SOUTHERN COAST CITY SKY/WX TMP DP RH WIND PRES REMARKS BEAUFORT SUNNY 85 69 58 SW8 30.00S CEDAR ISLAND N/A 88 N/A N/A SW8 30.03S JACKSONVILLE SUNNY 85 67 54 W5 29.99F PINEY ISLAND SUNNY N/A N/A N/A W9 29.99S WILMINGTON SUNNY 87 68 52 W7 30.00F $$ NCZ011>013-027>030-043-044-078>080-089-090>093-098-301600- COASTAL PLAIN CITY SKY/WX TMP DP RH WIND PRES REMARKS AHOSKIE SUNNY 84 68 59 S9 29.96S CLINTON SUNNY 85 71 62 S6 29.99S ELIZABETHTOWN SUNNY 85 67 53 SW6 30.00S GOLDSBORO SUNNY 87 66 49 S8 29.95F GREENVILLE SUNNY 86 68 54 SW7 29.99F HAVELOCK SUNNY 86 65 49 VRB7 30.01S KENANSVILLE SUNNY 84 67 56 CALM 30.00S KINSTON SUNNY 86 64 48 S6 29.99F NEW BERN MOSUNNY 85 67 54 SW8 30.01S RICHLANDS SUNNY 88 66 48 SW8 29.99F ROCKY MOUNT SUNNY 88 67 49 SW8 29.96F WASHINGTON SUNNY 85 66 53 SW8 29.98S WHITEVILLE SUNNY 84 67 56 SW6 30.00S $$ AMZ130-135-150-152-154-156-158-170-250-252-270-ANZ085-086-088-633-658-670-301600- MARINE OBSERVATIONS STATION/POSITION TIME TEMP WIND PRES WAVE SWELL AIR SEA DIR/SP/G HT/PER HT/PER (UTC) (F) (DEG/KT/KT) (MB) (FT/S) (FT/S) CHESAPEAKE LIGHT 1500 77 160/ 13/ 15 1015.1 64 E VA BEACH 1450 76 76 170/ 8/ 10 1015.3 4/ 8 3/ 8 DUCK 1500 80 74 150/ 7/ 8 1014.2 2 E DUCK 1411 75 N/A 2/ 8 OREGON INLET 1500 81 78 190/ 9/ 11 1015.4 13E OREGON INLT 1500 78 N/A 3/ 8 HATTERAS CG 1500 82 81 200/ 7/ 11 1015.7 DIAMOND BUOY 1450 80 82 220/ 10/ 12 1015.9 3/ 8 3/ 8 CAPE LOOKOUT 1500 81 250/ 10/ 11 1015.9 BEAUFORT LAB 1500 82 80 200/ 9/ 9 1015.3 30 SE NEW RVR IN NOT AVBL 27 SE WRIGHTSVLE 1500 81 250/ 10/ 12 N/A 5 SE WRIGHTSVLE 1408 80 79 240/ 6/ 8 1016.3 225 S CAPE HAT 1450 75 79 280/ 4/ 8 1019.1 5/ 7 5/ 7 41 SE CHARLESTON 1450 81 82 250/ 12/ 14 1017.0 4/ 7 3/ 7 $$

USA.gov is the U.S. government's official web portal to all federal, state and local government web resources and services.